Location: Équennes
(49.7375°N, 1.9622°E)
Time: 00:50:07
(UTC+00:00)

Cosmos 1844 Rocket - Pass Details

Date: 28 January 2023
Orbit: 825 x 843 km, 71.0° (Epoch: 31 March)

Event Time Altitude Azimuth Distance (km) Brightness Sun altitude
Rises 17:39:44 0° 334° (NNW) 3,380 6.0 -9.8°
Reaches altitude 10° 17:42:47 10° 350° (N) 2,442 5.1 -10.2°
Maximum altitude 17:47:02 22° 40° (NE) 1,756 3.9 -10.9°
Enters shadow 17:49:55 15° 78° (ENE) 2,096 4.1 -11.3°
